Location: Recife
(8.0585°S, 34.8848°W)
Time: 22:08:05
(UTC-03:00)

A-11 Canister half - Pass Details

Date: 19 April 2026
Orbit: 1523 x 1685 km, 47.3° (Epoch: 12 May)

Event Time Altitude Azimuth Distance (km) Brightness Sun altitude
Rises 21:43:51 0° 255° (WSW) 4,770 11.9 -66.4°
Enters shadow 21:46:58 - 267° (W) 4,094 11.5 -67.2°
Reaches altitude 10° 21:48:32 10° 275° (W) 3,814 - -67.6°
Maximum altitude 21:54:00 16° 310° (NW) 3,361 - -68.9°
Drops below altitude 10° 21:59:34 10° 345° (NNW) 3,876 - -70.2°
Sets 22:04:29 0° 5° (N) 4,886 - -71.4°
